DECAYED

STARLINK-31367, 59408 (Decayed)

Orbit data source: Space-Track

STARLINK-31367, 59408 was a payload satellite owned by SpaceX/Seattle (US) in LEO that was launched on Fri, 05 Apr 2024 UTC via an FALCON 9 launch vehicle from the Air Force Eastern Test Range (AFETR). Payload-class satellites include a variety of spacecraft equipped with specific instruments for various scientific and technological missions. These include communications satellites like Starlink; space stations such as the ISS; scientific satellites like the Hubble; Earth observation satellites from companies like Planet Labs, Umbra, and HawkEye 360; GPS; miniature CubeSats for education and research; and military/defense satellites.

Not visible in the next 10 days
Identifier
59408, 2024-064L
Orbit
Decayed
Country
Flag of USUS
Related business
Manufacturer
SpaceX/Seattle
Mission
Decayed Commercial Communications
Bus & Motor
STARLINK V2M, Unknown motor
Mass
730 kg wet, ~700 kg dry
Launch date (UTC)
2024-04-05 (2 years ago)
Launch vehicle
FALCON 9
Launch site
Air Force Eastern Test Range (AFETR)
Object type
Payload
Rocket body
Debris
Shape & HBR
Box + 2 Pan, 17.7 m
Radar Cross Section
33.884 m², Large (>1 m²)

Expand to show TLE details & history
Last TLE update: 1 year ago

TLE from 1 year ago
0 STARLINK-31367
1 59408U 24064L   25052.42084350  .04489794  26780-1  10460-1 0  9993
2 59408  42.9868  28.1097 0017198 164.2762 333.0208 15.99287143 51156
Epoch: 2025-02-21T10:06Z
TLE epoch observation values (Epoch: 2025-02-21T10:06:00.878Z)
Latitude
27.69898°
Longitude
-129.03489°
Altitude
266.395 km
Speed
7.758 km/s
True Right ascension
11h 36m 12s
True Declination
27° 32' 50"
Sunlit
Object was in full shadow at epoch
Visualization orbit readout
Latitude
Unknown
Longitude
Unknown
Altitude
Unknown
Speed
Unknown
Apparent Right ascension
Unknown
Apparent Declination
Unknown
Sunlit
N/A
Visualization observer readout
Local Sidereal Time
21:29:43
Azimuth
Unknown
Elevation
Unknown
Doppler factor
Unknown
Orbital elements
Apogee altitude
289.851 km
Perigee altitude
266.955 km
Semi-major axis
6,656.54 km
Eccentricity
0.00172
Inclination
42.9868°
RAAN
28.1097°
Arg. of periapsis
164.2762°
True anomaly
332.93122°
Mean anomaly
333.0208°
Eccentric anomaly
332.97603°
Mean motion
3.99641 °/min
Orbital period
90.08 mins
BSTAR
0.01046
Loading maneuver chart data...
Computing Atmospheric mass density...
Loading historical data...
Loading historical data...
Loading historical data...
Loading historical data...
Loading historical data...
Loading historical data...
Loading historical data...

Documentation

Showing up to 5 results
|